TimeEST,TemperatureF,Dew PointF,Humidity,Sea Level PressureIn,VisibilityMPH,Wind Direction,Wind SpeedMPH,Gust SpeedMPH,PrecipitationIn,Events,Conditions,WindDirDegrees,DateUTC
12:53 AM,23.0,12.0,63,30.12,10.0,NNW,9.2,-,N/A,,Overcast,340,2013-03-03 05:53:00
1:20 AM,21.2,10.4,63,30.08,10.0,North,8.1,-,N/A,,Partly Cloudy,350,2013-03-03 06:20:00
1:53 AM,21.9,10.9,63,30.11,10.0,North,4.6,-,N/A,,Partly Cloudy,350,2013-03-03 06:53:00
2:53 AM,17.1,10.0,74,30.09,10.0,Calm,Calm,-,N/A,,Clear,0,2013-03-03 07:53:00
3:53 AM,21.0,10.9,65,30.08,10.0,Variable,3.5,-,N/A,,Clear,0,2013-03-03 08:53:00
4:53 AM,14.0,9.0,80,30.08,10.0,Calm,Calm,-,N/A,,Clear,0,2013-03-03 09:53:00
5:53 AM,12.0,7.0,80,30.08,10.0,Calm,Calm,-,N/A,,Partly Cloudy,0,2013-03-03 10:53:00
6:13 AM,15.8,8.6,73,30.04,10.0,North,8.1,-,N/A,,Mostly Cloudy,350,2013-03-03 11:13:00
6:53 AM,21.9,12.9,68,30.08,10.0,NNW,10.4,-,N/A,,Mostly Cloudy,340,2013-03-03 11:53:00
7:53 AM,21.0,12.0,68,30.10,10.0,NNW,10.4,-,N/A,,Overcast,340,2013-03-03 12:53:00
8:53 AM,21.0,12.9,71,30.10,10.0,North,11.5,-,N/A,,Overcast,350,2013-03-03 13:53:00
9:53 AM,21.0,12.9,71,30.10,10.0,North,6.9,-,N/A,,Overcast,10,2013-03-03 14:53:00
10:53 AM,21.9,15.1,75,30.10,10.0,NNE,8.1,-,N/A,,Overcast,20,2013-03-03 15:53:00
11:53 AM,21.9,16.0,78,30.10,10.0,NNE,6.9,-,N/A,,Overcast,20,2013-03-03 16:53:00
12:53 PM,21.9,15.1,75,30.09,10.0,NNE,5.8,-,N/A,,Overcast,30,2013-03-03 17:53:00
1:53 PM,24.1,15.1,69,30.07,10.0,North,3.5,-,N/A,,Overcast,350,2013-03-03 18:53:00
2:53 PM,25.0,15.1,66,30.07,10.0,NNW,4.6,-,N/A,,Overcast,330,2013-03-03 19:53:00
3:53 PM,25.0,14.0,63,30.07,10.0,NW,6.9,-,N/A,,Overcast,320,2013-03-03 20:53:00
4:53 PM,25.0,14.0,63,30.08,9.0,NW,11.5,-,0.00,Snow,Light Snow,320,2013-03-03 21:53:00
5:53 PM,25.0,12.9,60,30.09,10.0,WNW,9.2,-,0.00,,Mostly Cloudy,300,2013-03-03 22:53:00
6:21 PM,24.8,12.2,59,30.05,10.0,NNW,6.9,-,N/A,,Scattered Clouds,340,2013-03-03 23:21:00
6:53 PM,24.1,12.9,62,30.09,10.0,NNW,8.1,-,N/A,,Scattered Clouds,340,2013-03-03 23:53:00
7:53 PM,19.0,10.9,71,30.09,10.0,West,4.6,-,N/A,,Scattered Clouds,270,2013-03-04 00:53:00
8:53 PM,18.0,10.9,74,30.09,10.0,Calm,Calm,-,N/A,,Partly Cloudy,0,2013-03-04 01:53:00
9:39 PM,14.0,8.6,79,30.07,10.0,Calm,Calm,-,N/A,,Mostly Cloudy,0,2013-03-04 02:39:00
9:53 PM,17.1,10.9,77,30.10,10.0,West,4.6,-,N/A,,Overcast,270,2013-03-04 02:53:00
10:53 PM,23.0,14.0,68,30.10,10.0,North,10.4,-,N/A,,Overcast,350,2013-03-04 03:53:00
11:53 PM,21.9,14.0,72,30.11,10.0,NNE,9.2,-,N/A,,Overcast,20,2013-03-04 04:53:00